Погода в Хамис-Мушаите

Саудовская Аравия     18°18′07″N   42°41′19″E
темп.,
°C
ветер,
м/с
пор.,
м/с
влажн.,
%
обл.,
%
осадки,
мм/ч
давл.,
гПа
погр.,
м
21 апреля, ср
ср2100:00+19вюв23361 0.0 101686
03:00+18в592314 0.0 1016175
06:00+17вюв48183 0.0 1017110
09:00+22в54151 0.0 10172065
12:00+24в33130 0.0 10143261
15:00+26св451156 0.0 10114004
18:00+24всв351468 0.0 10122480
21:00+21ююв34330 0.0 1015215
22 апреля, чт
чт2200:00+20юв22400 0.0 101633
03:00+18юв22320 0.0 101512
06:00+17вюв22210 0.0 101611
09:00+23вюв54120 0.0 10171752
12:00+25юв33100 0.0 10153216
15:00+26ю24120 0.0 10113765
18:00+23ююз44340 0.0 10121013
21:00+20ююз22440 0.0 1015367
23 апреля, пт
пт2300:00+20вюв11430 0.0 101414
03:00+18юв22355 0.0 101411
06:00+17вюв22190 0.0 101511
09:00+23юв33100 0.0 10151583
12:00+25юв2390 0.0 10133450
15:00+26зюз441630 0.0 10103799
18:00+22юз65380 0.0 1012958
21:00+20юз224634 0.0 1014214
24 апреля, сб
сб2400:00+20в113926 0.0 101312
03:00+19юв1135100 0.0 101211
06:00+19юв222898 0.0 101311
09:00+22ююв3423100 0.0 10141337
12:00+25ююз541799 0.0 10133110
15:00+26ююз872397 0.0 10103228
18:00+22юз423591 0.1 1011595
21:00+20ююз334855 0.1 1014317
25 апреля, вс
вс2500:00+20св014867 0.0 101497
03:00+19всв334899 0.0 101342
06:00+18вюв342120 0.0 101548
09:00+22ю34245 0.0 10151360
12:00+25ююз541779 0.0 10133346
15:00+25юз862598 0.0 10112783
18:00+23з3331100 0.0 10111523
21:00+20юз334640 0.0 1014362